[[{"header":{"parameterUnit":"m.s-1","parameterCategory":1,"la1":30.2992,"la2":30.254,"lo1":-89.0895,"lo2":-89.0443,"dy":0.0025,"dx":0.0025,"nx":19,"ny":19,"refTime":"2026-05-07T09:00:00:Z","depth":0,"parameterNumber":2,"parameterNumberName":"U-component_of_WINDS"},"data":[0,0,0,-0.8377,-0.8375,-0.8266,-0.8265,-0.8136,-0.8135,0,0,0,0,0,0,0,0,0,0,0,-0.8419,-0.8418,-0.8377,-0.8375,-0.8266,-0.8265,-0.8136,-0.8135,0,0,0,0,0,0,0,0,0,0,0,-0.8419,-0.8418,-0.8418,-0.8374,-0.8266,-0.8265,-0.8137,-0.8214,0,0,0,0,0,0,0,0,0,0,-0.8318,-0.8367,-0.8418,-0.8418,-0.8374,-0.8266,-0.8265,-0.8218,-0.821,-0.8191,0,-0.818,0,-0.8156,-0.8127,-0.8127,0,0,0,-0.8367,-0.8374,-0.8336,-0.8418,-0.8373,-0.8266,-0.8313,-0.8213,-0.8204,-0.818,-0.8178,-0.8173,-0.8153,-0.8127,-0.8126,-0.8049,-0.8049,0,0,-0.8373,-0.8404,-0.8343,-0.8331,-0.8352,-0.8316,-0.8309,-0.8207,-0.8206,-0.8177,-0.8169,-0.8151,-0.8126,-0.8125,-0.8049,-0.8049,0,0,0,-0.8395,-0.8408,-0.8372,-0.8336,-0.8316,-0.8313,-0.8305,-0.821,-0.8196,-0.8168,-0.815,-0.8125,-0.8124,-0.8049,-0.8049,-0.8079,0,0,0,-0.8399,-0.8421,-0.8376,-0.8393,-0.8318,-0.8263,-0.8311,-0.8203,-0.8191,-0.815,-0.8125,-0.8123,-0.8049,-0.8049,-0.8078,-0.8088,0,0,0,-0.8422,-0.8424,-0.8412,-0.8395,-0.835,-0.8264,-0.8243,-0.82,-0.818,-0.8127,-0.8122,-0.8049,-0.8049,-0.8077,-0.8086,-0.8075,0,0,0,-0.8456,-0.8441,-0.8413,-0.8388,-0.8351,-0.8284,-0.8244,-0.8192,-0.815,-0.8125,-0.8049,-0.8049,-0.8077,-0.8085,-0.8074,-0.807,-0.8072,0,0,-0.8454,-0.8442,-0.8424,-0.8396,-0.8342,-0.8298,-0.8246,-0.8178,-0.8144,-0.8082,-0.8079,-0.8078,-0.8086,-0.8074,-0.8072,-0.8074,0,0,0,-0.8434,-0.8421,-0.84,-0.8362,-0.831,-0.8265,-0.8201,-0.8175,-0.812,-0.812,-0.8071,-0.8074,-0.8066,-0.8062,-0.8064,-0.8053,-0.8049,-0.8049,-0.8049,-0.8474,-0.8431,-0.8398,-0.8342,-0.8305,-0.8238,-0.8202,-0.8155,-0.8123,-0.8112,-0.8093,-0.8097,-0.8094,-0.8095,-0.8085,-0.8088,-0.8088,-0.8089,-0.8089,-0.8465,-0.844,-0.8396,-0.8348,-0.8301,-0.8259,-0.8192,-0.817,-0.8122,-0.8109,-0.8099,-0.8088,-0.8099,-0.8087,-0.809,-0.809,-0.809,-0.809,-0.809,-0.8486,-0.8467,-0.8435,-0.8373,-0.833,-0.8271,-0.8227,-0.8185,-0.8146,-0.8137,-0.811,-0.811,-0.8102,-0.8127,-0.8127,-0.8127,-0.8127,-0.8127,-0.8127,-0.852,-0.8484,-0.8453,-0.8394,-0.8362,-0.8315,-0.8244,-0.8211,-0.8162,-0.8135,-0.8135,-0.8102,-0.8108,-0.811,-0.8127,-0.8127,-0.8127,-0.8127,-0.8127,-0.8526,-0.8517,-0.8469,-0.8437,-0.8362,-0.8319,-0.8267,-0.8201,-0.8167,-0.8145,-0.8113,-0.8125,-0.8109,-0.8108,-0.8109,-0.8124,-0.8124,-0.8124,-0.8124,-0.8542,-0.853,-0.847,-0.8421,-0.8368,-0.8315,-0.8257,-0.82,-0.814,-0.8115,-0.8106,-0.8104,-0.8105,-0.8088,-0.8087,-0.8087,-0.8097,-0.8097,-0.8097,-0.8542,-0.8522,-0.8483,-0.8426,-0.8363,-0.8308,-0.8252,-0.8194,-0.8123,-0.8095,-0.8093,-0.8095,-0.8091,-0.8092,-0.8065,-0.8064,-0.8064,0,0]},{"header":{"parameterUnit":"m.s-1","parameterCategory":1,"la1":30.2992,"la2":30.254,"lo1":-89.0895,"lo2":-89.0443,"dy":0.0025,"dx":0.0025,"nx":19,"ny":19,"refTime":"2026-05-07T09:00:00:Z","depth":0,"parameterNumber":3,"parameterNumberName":"V-component_of_WINDS"},"data":[0,0,0,-2.7722,-2.7722,-2.7728,-2.7728,-2.7726,-2.7726,0,0,0,0,0,0,0,0,0,0,0,-2.7716,-2.7715,-2.7722,-2.7722,-2.7728,-2.7728,-2.7726,-2.7726,0,0,0,0,0,0,0,0,0,0,0,-2.7716,-2.7716,-2.7715,-2.7722,-2.7728,-2.7728,-2.7726,-2.7724,0,0,0,0,0,0,0,0,0,0,-2.772,-2.7711,-2.7716,-2.7715,-2.7722,-2.7728,-2.7728,-2.7724,-2.7724,-2.7719,0,-2.7715,0,-2.772,-2.7725,-2.7725,0,0,0,-2.7724,-2.7711,-2.7716,-2.7715,-2.7722,-2.7728,-2.7726,-2.7724,-2.7724,-2.7719,-2.7715,-2.7715,-2.772,-2.7725,-2.7725,-2.7688,-2.7688,0,0,-2.7724,-2.7714,-2.7716,-2.7716,-2.7716,-2.7726,-2.7726,-2.7725,-2.7719,-2.7715,-2.7715,-2.772,-2.7725,-2.7725,-2.7688,-2.7688,0,0,0,-2.7721,-2.7714,-2.772,-2.7716,-2.7718,-2.7726,-2.7726,-2.7719,-2.7722,-2.7715,-2.772,-2.7725,-2.7725,-2.7689,-2.7688,-2.7662,0,0,0,-2.7721,-2.7712,-2.7719,-2.7713,-2.7718,-2.7719,-2.772,-2.7722,-2.7722,-2.772,-2.7725,-2.7725,-2.7689,-2.7688,-2.7663,-2.765,0,0,0,-2.7717,-2.7712,-2.7711,-2.7713,-2.7715,-2.7719,-2.7722,-2.7722,-2.7725,-2.7725,-2.7725,-2.7689,-2.7688,-2.7665,-2.7652,-2.7635,0,0,0,-2.7708,-2.7689,-2.7711,-2.7691,-2.7715,-2.7704,-2.7722,-2.7715,-2.7712,-2.7725,-2.7689,-2.7688,-2.7665,-2.7654,-2.7637,-2.7617,-2.7609,0,0,-2.7678,-2.7685,-2.7674,-2.7693,-2.7676,-2.7704,-2.7682,-2.7689,-2.7698,-2.769,-2.7689,-2.7663,-2.7653,-2.7635,-2.7571,-2.7564,0,0,0,-2.7661,-2.7652,-2.765,-2.7647,-2.7652,-2.7654,-2.7666,-2.7668,-2.7662,-2.7693,-2.7654,-2.7648,-2.7638,-2.7629,-2.7623,-2.7614,-2.7685,-2.7685,-2.7685,-2.7601,-2.7614,-2.7596,-2.7608,-2.7605,-2.7617,-2.7614,-2.7619,-2.7633,-2.7624,-2.762,-2.758,-2.7569,-2.7565,-2.7555,-2.7614,-2.7614,-2.7614,-2.7613,-2.7555,-2.7544,-2.7563,-2.7551,-2.7564,-2.7554,-2.7563,-2.7573,-2.7564,-2.7584,-2.7576,-2.7593,-2.7557,-2.7549,-2.7612,-2.7612,-2.7612,-2.7612,-2.7612,-2.7515,-2.7512,-2.7516,-2.7511,-2.7506,-2.752,-2.751,-2.7523,-2.7534,-2.7527,-2.7522,-2.7523,-2.7522,-2.7524,-2.7524,-2.7524,-2.7524,-2.7524,-2.7524,-2.7471,-2.7476,-2.7467,-2.747,-2.7468,-2.7468,-2.7478,-2.7476,-2.7477,-2.7487,-2.7487,-2.7499,-2.7553,-2.7564,-2.7522,-2.7522,-2.7522,-2.7522,-2.7523,-2.7414,-2.7429,-2.7414,-2.7413,-2.7415,-2.7407,-2.7425,-2.7419,-2.742,-2.7413,-2.7428,-2.7467,-2.7474,-2.7479,-2.7488,-2.7428,-2.7428,-2.7428,-2.7428,-2.7378,-2.7384,-2.737,-2.7366,-2.7364,-2.7377,-2.7356,-2.7363,-2.7373,-2.7373,-2.7384,-2.7398,-2.7402,-2.7407,-2.7413,-2.7421,-2.7346,-2.7346,-2.7346,-2.7342,-2.7348,-2.7328,-2.7339,-2.7342,-2.7343,-2.7323,-2.7315,-2.7329,-2.7343,-2.7372,-2.7376,-2.7399,-2.7406,-2.7418,-2.7427,-2.7443,0,0]}]]